Location: Amsterdam
(30.7274°N, 84.4357°W)
Time: 21:26:39
(UTC+00:00)

Explorer 11/Cluster Stage 4 - Pass Details

Date: 25 February 2026
Orbit: 463 x 1176 km, 28.8° (Epoch: 9 March)

Event Time Altitude Azimuth Distance (km) Brightness Sun altitude
Rises 15:12:46 0° 247° (WSW) 3,807 9.9 35.2°
Reaches altitude 10° 15:15:45 10° 244° (WSW) 2,755 9.3 35.7°
Maximum altitude 15:22:15 56° 168° (SSE) 1,020 8.4 36.7°
Drops below altitude 10° 15:27:32 10° 91° (E) 2,259 9.7 37.5°
Sets 15:29:47 0° 87° (E) 3,073 10.1 37.9°
